{"data":{"norad_id":65170,"epoch":"2026-05-25T04:39:12.788064Z","epoch_age_seconds":48364,"freshness":"FRESH","line1":"1 65170U 25174G   26145.19389801  .00000055  00000+0  93019-4 0  9990","line2":"2 65170  86.4912 259.6789 0001868  92.3395 267.7953 13.24404325 37749","mean_motion":13.24404325,"eccentricity":0.0001868,"inclination_deg":86.4912,"raan_deg":259.6789,"arg_perigee_deg":92.3395,"mean_anomaly_deg":267.7953,"bstar":9.3019e-5,"rev_number":3774,"period_min":108.72812575571,"perigee_km":1166.534134029,"apogee_km":1169.3533497942,"semimajor_km":7546.0807419116,"source":"CELESTRAK","updated_at":"2026-05-25T13:38:05.174384Z"}}